Preview of NWS' New Version of Forecast
This preview is not operational and should not be used for support decisions.

Regional Weather Roundup (RWR)

Issued by National Weather Service (NWS)

                            
000
ASUS44 KJAN 201410
RWRMS 

MISSISSIPPI HOURLY WEATHER ROUNDUP
NATIONAL WEATHER SERVICE JACKSON MS
800 AM CST WED FEB 20 2019

NOTE: "FAIR: INDICATES FEW OR NO CLOUDS BELOW 12,000 FEET WITH NO
SIGNIFICANT WEATHER AND/OR OBSTRUCTIONS TO VISIBILITY.

MSZ001>002-007>008-010>013-018>021-025>028-034>036-201500-
NORTHWEST MISSISSIPPI
  
CITY           SKY/WX    TMP DP  RH WIND       PRES   REMARKS
BATESVILLE     DRIZZLE   50  50 100 CALM      29.81S                  
CLARKSDALE     CLOUDY    45  45 100 W8        29.85R FOG              
CLEVELAND      CLOUDY    45  45 100 NW9       29.86R                  
GREENWOOD      TSTM      51  50  96 W3        29.83R FOG              
GREENVILLE     CLOUDY    44  42  93 W12       29.88R                  
OLIVE BRANCH   LGT RAIN  45  45 100 SE6       29.80F FOG              
OXFORD         DRIZZLE   52  52 100 VRB3      29.84S                  
TUNICA           N/A     43  41  93 W5        29.85R                  
WINONA         TSTM      58  58 100 NW3       29.80R                  
$$

MSZ003>006-009-014>017-022>024-029>033-037>039-201500-
NORTHEAST MISSISSIPPI
  
CITY           SKY/WX    TMP DP  RH WIND       PRES   REMARKS
ABERDEEN       DRIZZLE   55  55 100 SE14G25   29.84F                  
COLUMBUS AFB   CLOUDY    56  54  94 SE16G22   29.84S FOG              
CORINTH        TSTM      52  52 100 NE3       29.85F                  
GOLDN TRIANGLE CLOUDY    55  54  94 S20       29.85F FOG              
STARKVILLE     CLOUDY    55  54  94 SE15G30   29.83S                  
TUPELO         TSTM      55  53  93 SW6       29.88R VSB 1            
$$

MSZ040-058-201500-
CENTRAL MISSISSIPPI
  
CITY           SKY/WX    TMP DP  RH WIND       PRES   REMARKS
JACKSON INTL   LGT RAIN  70  68  93 S10       29.80S FOG              
JACKSON HAWKNS LGT RAIN  70  68  93 W17       29.82R                  
MADISON        PTSUNNY   68  68 100 S8        29.81R THUNDER          
MERIDIAN KEY   LGT RAIN  62  59  90 S12       29.89R FOG              
MERIDIAN NAS   CLOUDY    60  59  96 SE12G22   29.89F FOG              
RAYMOND        DRIZZLE   57  57 100 NW13G18   29.85R                  
VICKSBURG VKS  PTSUNNY   50  50 100 NW8       29.89R FOG              
$$

MSZ059>079-201500-
SOUTH MISSISSIPPI
  
CITY           SKY/WX    TMP DP  RH WIND       PRES   REMARKS
HATTIESBURG    LGT RAIN  72  70  93 S15G23    29.88S                  
LAUREL         CLOUDY    70  70 100 SE8       29.85F                  
MCCOMB         NOT AVBL                                               
NATCHEZ        CLOUDY    52  50  93 W10       29.91R                  
PINE BELT      CLOUDY    71  70  96 S13G20    29.87S                  
$$

MSZ080>082-201500-
COASTAL MISSISSIPPI
  
CITY           SKY/WX    TMP DP  RH WIND       PRES   REMARKS
BAY ST LOUIS   CLOUDY    70  70 100 S14       29.92F FOG              
BILOXI         FOG       67  67 100 SE16G25   29.92S VSB 1/4          
PASCAGOULA     CLOUDY    68  65  90 SE13      29.95R FOG              
GULFPORT       FOG       66  66 100 SE16G24   29.92S VSB 1/4          
$$

LAZ007>009-015>016-023>026-201500-
NORTHEAST LOUISIANA
  
CITY           SKY/WX    TMP DP  RH WIND       PRES   REMARKS
BASTROP        CLOUDY    41  41  99 W6        29.92R FOG              
TALLULAH/VBURG LGT RAIN  47  46  97 NW8       29.89R FOG              
VIDALIA        CLOUDY    50  49  96 NW7       29.91R                  
$$